Weather History for KORE - March, 2013

Change the Weather History Date:

Saturday, March 16, 2013

  Actual Average Record
Temperature  
Mean Temperature 28 °F -  
Max Temperature 37 °F 38 °F 54 °F (2003)
Min Temperature 21 °F 20 °F 15 °F (1997)
Degree Days  
Heating Degree Days 36    
Moisture  
Dew Point 15 °F    
Average Humidity 56    
Maximum Humidity 86    
Minimum Humidity 32    
Precipitation  
Precipitation 0.01 in - - ()
Sea Level Pressure  
Sea Level Pressure 29.80 in    
Wind  
Wind Speed 6 mph (NW)    
Max Wind Speed 9 mph    
Max Gust Speed 20 mph    
Visibility 9 miles    
Events Snow    
Averages and records for this station are not official NWS values.
T = Trace of Precipitation, MM = Missing Value Source: NWS Daily Summary

Daily Weather History Graph

Daily Weather History Graph

Search for Another Location

Airport or City:

Trip Planner

Search our weather history database for the weather conditions in past years. The results will help you decide how hot, cold, wet, or windy it might be!

Date:

Astronomy

Mar. 16, 2013 Rise Set
Actual Time 6:59 AM EDT 6:57 PM EDT
Civil Twilight 6:30 AM EDT 7:25 PM EDT
Nautical Twilight 5:58 AM EDT 7:57 PM EDT
Astronomical Twilight 5:24 AM EDT 8:31 PM EDT
Moon 9:20 AM EDT (3/16) No Moon Set
Length of Visible Light 12h 54m
Length of Day
11h 58m
Waxing Crescent, 23% of the Moon is Illuminated
Mar 16
Waxing Crescent
Mar 19
First Quarter
Mar 27
Full
Apr 3
Last Quarter
Apr 10
New

Hourly Weather History & Observations

Time (EDT) Temp. Windchill Dew Point Humidity Pressure Visibility Wind Dir Wind Speed Gust Speed Precip Events Conditions
12:13 AM 30.2 °F 21.9 °F 26.6 °F 86% 29.69 in 1.8 mi NW 9.2 mph - 0.01 in Snow Light Snow
12:21 AM 30.2 °F 21.9 °F 26.6 °F 86% 29.70 in 2.5 mi NW 9.2 mph 19.6 mph 0.01 in Snow Light Snow
12:28 AM 30.2 °F 21.9 °F 24.8 °F 80% 29.70 in 9.0 mi NW 9.2 mph - 0.01 in Snow Light Snow
12:52 AM 30.9 °F 25.2 °F 24.1 °F 76% 29.72 in 10.0 mi WNW 5.8 mph - 0.01 in   Overcast
1:52 AM 30.0 °F 22.4 °F 19.9 °F 66% 29.74 in 10.0 mi NNW 8.1 mph - N/A   Mostly Cloudy
2:52 AM 28.9 °F 21.1 °F 19.0 °F 67% 29.75 in 10.0 mi NW 8.1 mph - N/A   Mostly Cloudy
3:52 AM 26.1 °F - 16.0 °F 66% 29.76 in 10.0 mi Calm Calm - N/A   Clear
4:52 AM 24.1 °F 18.2 °F 12.9 °F 62% 29.79 in 10.0 mi NW 4.6 mph - N/A   Clear
5:52 AM 23.0 °F - 12.9 °F 65% 29.82 in 10.0 mi Calm Calm - N/A   Clear
6:52 AM 24.1 °F 16.0 °F 14.0 °F 65% 29.83 in 10.0 mi NNW 6.9 mph - N/A   Clear
7:52 AM 21.9 °F - 14.0 °F 72% 29.86 in 10.0 mi Calm Calm - N/A   Scattered Clouds
8:52 AM 27.0 °F 19.5 °F 14.0 °F 58% 29.86 in 10.0 mi North 6.9 mph - N/A   Clear
9:52 AM 27.0 °F 19.5 °F 14.0 °F 58% 29.86 in 10.0 mi NW 6.9 mph - N/A   Scattered Clouds
10:52 AM 28.0 °F 24.2 °F 12.0 °F 51% 29.86 in 10.0 mi NNW 3.5 mph - N/A   Overcast
11:52 AM 30.0 °F 26.5 °F 12.0 °F 47% 29.84 in 10.0 mi Variable 3.5 mph - N/A   Overcast
12:52 PM 32.0 °F 28.7 °F 10.0 °F 40% 29.82 in 10.0 mi NNW 3.5 mph - N/A   Mostly Cloudy
1:52 PM 34.0 °F - 9.0 °F 35% 29.80 in 10.0 mi Calm Calm - N/A   Overcast
2:52 PM 34.0 °F - 7.0 °F 32% 29.80 in 10.0 mi Calm Calm - N/A   Overcast
3:52 PM 35.1 °F 31.0 °F 8.1 °F 33% 29.79 in 10.0 mi WNW 4.6 mph - N/A   Overcast
4:52 PM 36.0 °F 33.3 °F 10.0 °F 34% 29.77 in 10.0 mi ENE 3.5 mph - N/A   Clear
6:52 PM 34.0 °F 29.8 °F 10.9 °F 38% 29.79 in 10.0 mi SW 4.6 mph - N/A   Overcast
7:52 PM 33.1 °F - 12.9 °F 43% 29.81 in 10.0 mi Calm Calm - N/A   Overcast
8:52 PM 33.1 °F 26.9 °F 12.0 °F 42% 29.83 in 10.0 mi West 6.9 mph - N/A   Overcast
9:52 PM 30.0 °F 25.2 °F 12.0 °F 47% 29.85 in 10.0 mi NNW 4.6 mph - N/A   Mostly Cloudy
10:52 PM 27.0 °F - 14.0 °F 58% 29.87 in 10.0 mi Calm Calm - N/A   Partly Cloudy
11:52 PM 26.1 °F - 14.0 °F 60% 29.89 in 10.0 mi Calm Calm - N/A   Scattered Clouds